LSZH

Zürich Airport

Airport
ICAO code
LSZH
IATA Code
ZRH
Summary
ICAO Region
EUR
ICAO Territory
Location

Kloten, Zürich

Serving
Zürich
Elevation
1416 ft
Coordinates
47° 27' 53" N , 8° 32' 57" E
KCC
Metar
Observation
LSZH 252220Z 19004KT 110V250 9999 FEW045 08/03 Q1014 NOSIG
Station
Zurich-Kloten
Date/Time
2023-03-25 22:20:00
Wind direction
190°
Wind speed
04 kts
Lowest cloud amount
few clouds
Temperature
8°C
Dew point
3°C
Humidity
70%
QNH
1014 hPa
Weather condition
n/a

An airport serving Grenchen, a municipality in the district of Lebern in the canton of Solothurn in Switzerland.

Climatology

Temperate Marine climate/Oceanic climate (Köppen climate classification Cfb).

Runways

Designator Length Width Surface Rops
10/28 2500 60 CON Yes/Yes
14/32 3300 60 CON Yes/Yes
16/34 3700 60 CON Yes/Yes

SKYbrary Partners:

Safety knowledge contributed by: